Location: Bluff Heights
(33.7692°N, 118.1592°W)
Time: 23:50:38
(UTC+00:00)

Tiros 1 - Pass Details

Date: 02 August 2021
Orbit: 630 x 663 km, 48.4° (Epoch: 20 September)

Event Time Altitude Azimuth Distance (km) Brightness Sun altitude
Rises 09:01:39 0° 296° (WNW) 2,941 - -36.4°
Reaches altitude 10° 09:04:17 10° 284° (WNW) 2,023 - -36.3°
Maximum altitude 09:08:07 25° 228° (SW) 1,264 - -36.0°
Drops below altitude 10° 09:11:54 10° 173° (S) 2,001 - -35.7°
Sets 09:14:30 0° 160° (SSE) 2,901 - -35.5°
